#timestamp,LO_Frequency,Hit,StdDev 
1571169615.6,286046999.4,N
1571169635.4,286046998.3,N
1571169655.2,286046998.8,N
1571169675.1,286047000.9,N
1571169676.0,286047000.9,N
1571169695.8,286046998.5,N
1571169715.6,286046998.4,N
1571169735.5,286047000.7,N
1571169755.3,286046998.1,N
1571169775.2,286046998.2,N
1571169795.9,286046998.7,N
1571169815.7,286046998.3,N
1571169835.6,286047000.4,N
1571169855.4,286047000.0,N
1571169875.2,286046998.1,N
1571169895.1,286047000.3,N
1571169896.0,286047000.3,N
1571169915.8,286047000.7,N
1571169935.1,286046998.1,N
1571169936.0,286046998.1,N
1571169955.8,286046997.0,N
1571169975.6,286046997.2,N
1571169995.5,286046997.3,N
1571170015.3,286046996.8,N
1571170035.1,286046999.2,N
1571170055.9,286046998.3,N
1571170075.7,286046999.5,N
1571170095.6,286046997.3,N
1571170115.4,286046997.2,N
1571170135.2,286046997.8,N
1571170155.1,286046997.6,N
1571170156.0,286046997.6,N
1571170175.8,286046997.6,N
1571170195.7,286046996.7,N
1571170215.5,286046996.1,Y
1571170235.3,286046997.7,P
1571170255.2,286046995.4,P
1571170275.0,286046995.2,P
1571170275.9,286046995.2,Y
1571170295.8,286046998.7,P
1571170315.6,286046997.7,N
1571170335.4,286046995.8,P
1571170355.3,286046995.0,Y
1571170375.1,286046999.9,P
1571170395.9,286046996.8,N
1571170415.7,286046999.5,N
1571170435.5,286046998.2,N
1571170455.4,286046998.7,N
1571170475.2,286046998.4,N
1571170495.0,286047000.8,N
1571170496.0,286047000.8,N
1571170515.8,286046997.0,N
1571170535.6,286046997.0,N
1571170555.5,286046997.4,N
1571170575.3,286046997.6,N
1571170595.1,286046995.1,Y
1571170615.9,286046998.0,P
1571170635.7,286046998.4,P
1571170655.6,286047000.5,N
1571170675.4,286046998.4,N
1571170695.2,286047000.5,N
1571170715.1,286047001.9,N
1571170716.0,286047001.9,N
1571170735.8,286046998.7,N
1571170755.6,286046996.8,N
1571170775.5,286047000.4,N
1571170795.3,286046998.6,N
1571170815.2,286046998.6,N
1571170835.0,286047000.5,N
1571170835.9,286047000.5,N
1571170855.8,286046998.2,N
1571170875.6,286047000.3,N
1571170895.4,286047002.2,N
1571170915.3,286047001.3,N
1571170935.1,286047002.3,N
1571170955.8,286046998.9,N
1571170975.7,286046999.4,N
1571170995.5,286047001.1,N
1571171015.4,286046998.8,N
1571171035.2,286046998.3,N
1571171055.0,286046998.3,N
1571171055.9,286046998.3,N
1571171075.8,286046998.1,N
1571171095.6,286046996.8,N
1571171115.5,286046999.4,N
1571171135.3,286046999.1,N
1571171155.1,286046999.5,N
1571171175.9,286047000.4,N
1571171195.7,286047001.1,N
1571171215.6,286047000.6,N
1571171235.4,286047000.8,N
1571171255.2,286046999.8,N
1571171275.1,286047000.0,N
1571171276.0,286047000.0,N
1571171295.8,286047002.1,N
1571171315.7,286047000.5,N
1571171335.5,286046998.4,N
1571171355.3,286046998.2,N
1571171375.2,286047002.2,N
1571171395.0,286047000.4,N
1571171395.9,286047000.4,N
1571171415.7,286047000.4,N
1571171435.6,286046998.1,N
1571171455.4,286046999.2,N
1571171475.3,286047001.2,N
1571171495.1,286046997.4,N
1571171515.8,286046998.6,N
1571171535.7,286047000.2,N
1571171555.5,286047001.1,N
1571171575.4,286047003.7,N
1571171595.2,286047004.2,N
1571171615.0,286047000.1,N
1571171615.9,286047000.1,N
1571171635.8,286047000.2,N
1571171655.6,286047002.3,N
1571171675.5,286047002.2,N
1571171695.3,286047001.9,N
1571171715.1,286047003.7,N
1571171735.9,286047004.8,N
1571171755.7,286047004.1,N
1571171775.5,286047000.9,N
1571171795.4,286047002.1,N
1571171815.2,286047005.4,N
1571171835.1,286047002.3,N
1571171836.0,286047002.3,N
1571171855.8,286047002.5,N
1571171875.6,286047004.2,N
1571171895.5,286047000.1,N
1571171915.3,286047001.0,N
1571171935.2,286047000.2,N
1571171955.9,286047001.4,N
1571171975.7,286047001.8,N
1571171995.6,286047003.4,N
1571172015.4,286047005.2,N
1571172035.3,286047006.0,Y
1571172055.1,286047001.8,P
1571172056.0,286047001.8,P
1571172075.8,286047001.3,P
1571172095.7,286047000.2,N
1571172115.5,286047001.6,N
1571172135.3,286046998.5,N
1571172155.2,286046998.6,N
1571172175.0,286047002.8,N
1571172175.9,286047002.8,N
1571172195.8,286047001.3,N
1571172215.6,286047002.2,N
1571172235.4,286047002.6,N
1571172255.3,286047000.9,N
1571172275.1,286046999.7,N
1571172295.9,286047002.3,N
1571172315.7,286047000.4,N
1571172335.5,286046997.0,N
1571172355.4,286046997.4,N
1571172375.2,286046996.6,N
1571172395.1,286046996.7,N
1571172396.0,286046996.7,N
1571172415.8,286046995.5,N
1571172435.6,286046993.9,N
1571172455.5,286046995.0,N
1571172475.3,286046999.2,N
1571172495.1,286047000.4,N
1571172515.9,286047000.9,N
1571172535.7,286046996.8,N
1571172555.6,286046995.4,N
1571172575.4,286046996.1,N
1571172595.2,286046997.5,N
1571172615.1,286046998.7,N
1571172616.0,286046998.7,N
1571172635.8,286047002.1,N
1571172655.7,286047002.6,N
1571172675.5,286047002.7,N
1571172695.3,286047000.0,N
1571172715.2,286046999.9,N
1571172735.0,286047002.6,N
1571172735.9,286047002.6,N
1571172755.7,286046999.8,N
1571172775.6,286047000.7,N
1571172795.4,286047000.1,N
1571172815.3,286046998.1,N
1571172835.1,286047000.8,N
1571172855.8,286047001.8,N
1571172875.7,286047003.8,N
1571172895.5,286047002.6,N
1571172915.4,286047001.8,N
1571172935.2,286047004.1,N
1571172955.0,286047004.6,N
1571172955.9,286047004.6,N
1571172975.8,286047001.4,N
1571172995.6,286047002.7,N
1571173015.4,286047000.5,N
1571173035.3,286047002.5,N
1571173055.1,286047000.5,N
1571173075.9,286046998.6,N
1571173095.7,286047000.9,N
1571173115.5,286046998.4,N
1571173135.4,286047000.1,N
1571173155.2,286046998.5,N
1571173175.1,286047000.8,N
1571173176.0,286047000.8,N
1571173195.8,286046998.5,N
